KG4QWI Weather Reports


Display with metric or nautical units.
time (UTC)temp
F
wind
direction
speed
MPH
gust
MPH
rain 1hr
in
rain 24hr
in
rain mn
in
humidity
%
barometer
mb
20260503211553 69 0 0.0 4.0 0.00 0.00 0.00 31 1017.8
20260503211037 69 178 0.0 6.0 0.00 0.00 0.00 31 1017.9
20260503210538 69 360 0.0 7.0 0.00 0.00 0.00 31 1017.9
20260503210048 69 176 1.0 7.0 0.00 0.00 0.00 28 1017.9
20260503205538 69 165 0.0 6.0 0.00 0.00 0.00 28 1017.9
20260503205041 69 0 0.0 2.0 0.00 0.00 0.00 32 1018.0
20260503204557 69 0 0.0 9.0 0.00 0.00 0.00 32 1018.2
20260503204039 69 0 1.0 9.0 0.00 0.00 0.00 31 1018.1
20260503203538 69 0 0.0 9.0 0.00 0.00 0.00 31 1018.3
20260503203053 69 0 0.0 5.0 0.00 0.00 0.00 32 1018.2
20260503202539 69 0 1.0 5.0 0.00 0.00 0.00 32 1018.2
20260503202038 69 0 0.0 3.0 0.00 0.00 0.00 31 1018.4
20260503201550 69 0 0.0 3.0 0.00 0.00 0.00 33 1018.4
20260503201038 69 0 0.0 2.0 0.00 0.00 0.00 31 1018.6
20260503200542 69 0 0.0 2.0 0.00 0.00 0.00 34 1018.7
20260503200050 68 0 0.0 8.0 0.00 0.00 0.00 33 1018.9
20260503195542 68 288 1.0 8.0 0.00 0.00 0.00 31 1018.9
20260503195038 69 136 0.0 4.0 0.00 0.00 0.00 30 1018.9
20260503194554 69 0 0.0 3.0 0.00 0.00 0.00 32 1019.1
20260503194042 68 0 0.0 4.0 0.00 0.00 0.00 33 1019.1
20260503193539 68 0 0.0 4.0 0.00 0.00 0.00 31 1019.2
20260503193106 68 230 0.0 4.0 0.00 0.00 0.00 32 1019.2
20260503192538 68 0 0.0 6.0 0.00 0.00 0.00 32 1019.2
20260503192039 68 0 0.0 6.0 0.00 0.00 0.00 32 1019.4
20260503191552 68 0 1.0 6.0 0.00 0.00 0.00 31 1019.5
20260503191038 67 0 0.0 3.0 0.00 0.00 0.00 32 1019.5
20260503190539 67 275 0.0 9.0 0.00 0.00 0.00 32 1019.7
20260503190107 67 0 0.0 9.0 0.00 0.00 0.00 34 1019.7
20260503185542 67 187 0.0 5.0 0.00 0.00 0.00 33 1019.8
20260503185040 67 325 0.0 4.0 0.00 0.00 0.00 30 1019.8
20260503184552 66 0 0.0 3.0 0.00 0.00 0.00 33 1019.9
20260503184042 66 244 0.0 4.0 0.00 0.00 0.00 33 1019.9
20260503183542 66 355 0.0 4.0 0.00 0.00 0.00 33 1019.9
20260503183059 66 236 0.0 4.0 0.00 0.00 0.00 36 1019.9
20260503182541 65 0 0.0 3.0 0.00 0.00 0.00 35 1020.0
20260503182039 65 0 0.0 10.0 0.00 0.00 0.00 37 1020.2
20260503181552 64 0 0.0 10.0 0.00 0.00 0.00 36 1020.2
20260503181039 64 185 1.0 4.0 0.00 0.00 0.00 34 1020.2
20260503180539 64 0 1.0 4.0 0.00 0.00 0.00 32 1020.3
20260503180056 64 0 0.0 3.0 0.00 0.00 0.00 35 1020.4
20260503175540 63 196 0.0 4.0 0.00 0.00 0.00 32 1020.6
20260503175038 63 0 0.0 4.0 0.00 0.00 0.00 36 1020.6
20260503174754 63 352 0.0 10.0 0.00 0.00 0.00 33 1020.6
20260503174041 62 0 0.0 10.0 0.00 0.00 0.00 37 1020.6
20260503173541 62 321 3.0 10.0 0.00 0.00 0.00 34 1020.7
20260503173106 62 355 1.0 6.0 0.00 0.00 0.00 36 1020.6
20260503172540 62 167 1.0 8.0 0.00 0.00 0.00 35 1020.8
20260503172040 62 238 2.0 9.0 0.00 0.00 0.00 35 1020.7
20260503171552 62 352 2.0 9.0 0.00 0.00 0.00 34 1020.8
20260503171038 62 297 3.0 9.0 0.00 0.00 0.00 34 1020.9
20260503170537 63 350 0.0 3.0 0.00 0.00 0.00 37 1020.9
20260503150538 56 317 1.0 5.0 0.00 0.00 0.00 42 1022.0
20260503131038 50 38 0.0 2.0 0.00 0.00 0.00 58 1021.8
20260503130539 49 0 0.0 2.0 0.00 0.00 0.00 59 1021.8
20260503110539 41 321 3.0 6.0 0.00 0.00 0.00 76 1020.4
20260503081545 43 340 3.0 8.0 0.00 0.00 0.00 70 1019.3
20260503081038 43 352 3.0 8.0 0.00 0.00 0.00 70 1019.3
20260503080542 43 344 3.0 8.0 0.00 0.00 0.00 70 1019.2
20260503072539 44 327 1.0 5.0 0.00 0.00 0.00 70 1018.9
20260503072040 44 0 0.0 5.0 0.00 0.00 0.00 70 1018.7
20260503071550 44 342 2.0 7.0 0.00 0.00 0.00 70 1018.7
20260503071038 44 336 2.0 7.0 0.00 0.00 0.00 70 1018.6
20260503070538 44 14 1.0 4.0 0.00 0.00 0.00 70 1018.7
20260503055058 46 0 2.0 8.0 0.00 0.00 0.00 66 1018.3
20260503054549 46 344 3.0 8.0 0.00 0.00 0.00 66 1018.3
20260503054038 46 333 3.0 8.0 0.00 0.00 0.00 66 1018.3
20260503053538 47 342 3.0 8.0 0.00 0.00 0.00 66 1018.2
20260503053048 47 344 2.0 6.0 0.00 0.00 0.00 66 1018.2
20260503052539 47 331 1.0 7.0 0.00 0.00 0.00 65 1018.1
20260503052039 47 338 3.0 7.0 0.00 0.00 0.00 65 1018.2
20260503051556 47 347 2.0 9.0 0.00 0.00 0.00 66 1018.2
20260503051041 47 347 3.0 9.0 0.00 0.00 0.00 66 1018.2
20260503050538 47 5 2.0 6.0 0.00 0.00 0.00 67 1018.3
20260503050046 47 355 3.0 6.0 0.00 0.00 0.00 66 1018.3
20260503045539 47 307 2.0 5.0 0.00 0.00 0.00 67 1018.3
20260503045038 47 347 2.0 5.0 0.00 0.00 0.00 66 1018.3
20260503044544 47 301 0.0 4.0 0.00 0.00 0.00 66 1018.1
20260503044038 47 326 1.0 5.0 0.00 0.00 0.00 65 1018.1
20260503043540 47 0 3.0 5.0 0.00 0.00 0.00 65 1018.1
20260503043042 47 322 1.0 4.0 0.00 0.00 0.00 64 1018.2
20260503042539 47 360 1.0 5.0 0.00 0.00 0.00 64 1018.0
20260503042039 48 317 2.0 5.0 0.00 0.00 0.00 64 1018.1
20260503041541 48 0 1.0 4.0 0.00 0.00 0.00 63 1017.9
20260503041038 48 309 1.0 6.0 0.00 0.00 0.00 63 1017.9
20260503040540 48 0 1.0 6.0 0.00 0.00 0.00 62 1017.8
20260503040040 48 337 3.0 6.0 0.00 0.00 0.00 62 1017.9
20260503035538 48 355 3.0 9.0 0.00 0.00 0.00 61 1017.8
20260503035038 48 0 3.0 9.0 0.00 0.00 0.00 61 1017.8
20260503034549 49 338 3.0 9.0 0.00 0.00 0.00 61 1017.8
20260503034038 49 342 3.0 10.0 0.00 0.00 0.00 61 1017.8
20260503033538 49 24 4.0 10.0 0.00 0.00 0.00 61 1017.8
20260503033048 49 346 4.0 12.0 0.00 0.00 0.00 61 1017.8
20260503032539 49 313 4.0 12.0 0.00 0.00 0.00 60 1017.8
20260503032039 49 333 2.0 10.0 0.00 0.00 0.00 60 1017.9
20260503031544 49 337 4.0 11.0 0.00 0.00 0.00 60 1017.9
20260503031038 49 5 4.0 11.0 0.00 0.00 0.00 60 1017.9
20260503030538 49 349 3.0 9.0 0.00 0.00 0.00 60 1017.9
20260503030043 49 331 4.0 8.0 0.00 0.00 0.00 59 1017.8
20260503025538 49 319 4.0 9.0 0.00 0.00 0.00 59 1017.8
20260503025037 49 347 4.0 9.0 0.00 0.00 0.00 59 1017.7
20260503024557 49 321 1.0 10.0 0.00 0.00 0.00 59 1017.6
20260503024538 49 321 3.0 10.0 0.00 0.00 0.00 58 1017.6
20260503023539 49 24 2.0 8.0 0.00 0.00 0.00 58 1017.5
20260503023048 50 329 3.0 9.0 0.00 0.00 0.00 58 1017.6
20260503022540 50 334 3.0 9.0 0.00 0.00 0.00 58 1017.5
20260503022038 50 341 3.0 8.0 0.00 0.00 0.00 58 1017.5
20260503021551 50 31 2.0 9.0 0.00 0.00 0.00 58 1017.5
20260503021039 50 0 2.0 9.0 0.00 0.00 0.00 57 1017.4
20260503020540 50 347 2.0 8.0 0.00 0.00 0.00 57 1017.5
20260503020054 50 344 3.0 8.0 0.00 0.00 0.00 57 1017.4
20260503015539 50 341 2.0 10.0 0.00 0.00 0.00 57 1017.2
20260503015041 50 332 4.0 10.0 0.00 0.00 0.00 56 1017.2
20260503014618 50 317 3.0 8.0 0.00 0.00 0.00 56 1017.1
20260503014039 50 32 2.0 9.0 0.00 0.00 0.00 56 1017.0
20260503013538 50 23 3.0 9.0 0.00 0.00 0.00 55 1016.9
20260503013049 51 340 1.0 8.0 0.00 0.00 0.00 55 1016.8
20260503012541 51 360 2.0 8.0 0.00 0.00 0.00 55 1016.7
20260503012040 51 17 4.0 8.0 0.00 0.00 0.00 54 1016.7
20260503011558 51 350 2.0 8.0 0.00 0.00 0.00 54 1016.7
20260503011039 51 329 2.0 8.0 0.00 0.00 0.00 54 1016.7
20260503010538 51 317 3.0 9.0 0.00 0.00 0.00 54 1016.6
20260503010054 51 32 3.0 11.0 0.00 0.00 0.00 53 1016.5
20260503005538 51 331 4.0 11.0 0.00 0.00 0.00 53 1016.5
20260503005038 51 325 5.0 10.0 0.00 0.00 0.00 52 1016.3
20260503004559 52 360 4.0 9.0 0.00 0.00 0.00 52 1016.3
20260503004039 52 5 3.0 9.0 0.00 0.00 0.00 52 1016.3
20260503003538 52 323 3.0 9.0 0.00 0.00 0.00 51 1016.1
20260503003056 52 327 2.0 8.0 0.00 0.00 0.00 51 1016.1
20260503002538 52 333 2.0 8.0 0.00 0.00 0.00 51 1016.1
20260503002038 53 343 3.0 7.0 0.00 0.00 0.00 50 1016.1
20260503001544 53 26 2.0 8.0 0.00 0.00 0.00 50 1016.0
20260503001038 53 9 2.0 8.0 0.00 0.00 0.00 49 1015.8
20260503000537 53 339 2.0 10.0 0.00 0.00 0.00 48 1015.8
20260503000042 54 355 3.0 10.0 0.00 0.00 0.00 48 1015.7
20260502235538 54 28 4.0 9.0 0.00 0.00 0.00 48 1015.7
20260502235115 54 360 4.0 11.0 0.00 0.00 0.00 47 1015.6
20260502234547 55 333 4.0 11.0 0.00 0.00 0.00 47 1015.6
20260502234038 55 327 3.0 9.0 0.00 0.00 0.00 46 1015.6
20260502233538 55 346 3.0 12.0 0.00 0.00 0.00 45 1015.5
20260502233047 56 343 3.0 12.0 0.00 0.00 0.00 43 1015.3
20260502232539 56 346 5.0 11.0 0.00 0.00 0.00 43 1015.3
20260502232038 56 5 3.0 14.0 0.00 0.00 0.00 43 1015.3
20260502231545 56 315 5.0 14.0 0.00 0.00 0.00 43 1015.2
20260502231038 56 5 3.0 11.0 0.00 0.00 0.00 42 1015.2
20260502230538 56 336 4.0 18.0 0.00 0.00 0.00 42 1015.2
20260502230044 56 346 4.0 18.0 0.00 0.00 0.00 43 1015.2
20260502225537 57 323 3.0 10.0 0.00 0.00 0.00 43 1015.2
20260502225038 57 317 3.0 12.0 0.00 0.00 0.00 42 1015.3
20260502224603 57 344 5.0 12.0 0.00 0.00 0.00 41 1015.2
20260502224038 57 333 6.0 12.0 0.00 0.00 0.00 40 1015.3
20260502223538 57 42 3.0 10.0 0.00 0.00 0.00 40 1015.2
20260502223048 57 307 1.0 11.0 0.00 0.00 0.00 41 1015.2
20260502222538 58 13 4.0 11.0 0.00 0.00 0.00 39 1015.2
20260502222039 57 335 3.0 12.0 0.00 0.00 0.00 39 1015.2
20260502221550 57 5 4.0 14.0 0.00 0.00 0.00 39 1015.1
20260502221038 58 344 3.0 14.0 0.00 0.00 0.00 39 1015.0
20260502220540 58 9 3.0 13.0 0.00 0.00 0.00 38 1015.0
20260502220048 59 340 4.0 13.0 0.00 0.00 0.00 37 1014.8
20260502215538 59 328 5.0 12.0 0.00 0.00 0.00 37 1014.8
20260502215040 59 352 6.0 10.0 0.00 0.00 0.00 37 1014.6
20260502214549 59 310 4.0 11.0 0.00 0.00 0.00 38 1014.6
20260502214038 59 323 3.0 13.0 0.00 0.00 0.00 37 1014.7
20260502213540 59 314 7.0 13.0 0.00 0.00 0.00 37 1014.8
20260502213058 59 355 4.0 14.0 0.00 0.00 0.00 37 1014.8
20260502212539 59 5 3.0 15.0 0.00 0.00 0.00 37 1014.8
20260502212041 59 338 7.0 15.0 0.00 0.00 0.00 37 1014.8